Location: Henderson
(36.0400°N, 114.9810°W)
Time: 04:10:39
(UTC-07:00)

Daily predictions for brighter satellites

Satellite Brightness Start Highest point End
(mag) Time Altitude Azimuth Time Altitude Azimuth Time Altitude Azimuth
Cosmos 2369 Rocket 3.2 00:40:13 41° NNE 00:40:13 41° NNE 00:43:49 10° NNE
SeaSat 1 4.1 00:56:19 28° NE 00:56:19 28° NE 00:59:55 10° N
CZ-2C R/B 3.7 01:03:42 10° N 01:07:08 41° NNW 01:07:08 41° NNW
Cosmos 1802 Rocket 4.4 01:15:55 58° NE 01:15:55 58° NE 01:21:01 10° N
NOSS 3-1 (A) 3.9 01:07:21 10° NNW 01:15:08 84° ENE 01:15:25 82° E
Cosmos 2016 Rocket 4.4 01:21:17 56° NE 01:21:17 56° NE 01:26:18 10° NNE
CZ-2C R/B 4.3 01:25:51 37° NNW 01:25:51 37° NNW 01:28:48 10° NNW
Cosmos 1459 Rocket 4.3 01:26:12 61° NNW 01:26:12 61° NNW 01:31:12 10° N
Cosmos 1943 Rocket 2.9 01:34:26 50° NNE 01:34:26 50° NNE 01:38:29 10° NNE
Lacrosse 5 3.4 01:37:14 32° NNW 01:37:14 32° NNW 01:41:06 10° NNE
ATLAS 2AS CENTAUR R/B 3.7 01:28:54 10° NNW 01:36:42 48° NE 01:40:46 27° ESE
Cosmos 2173 Rocket 4.4 01:40:50 56° NW 01:40:50 56° NW 01:46:10 10° N
Cosmos 1725 Rocket 4.1 01:53:27 72° NE 01:53:27 72° NE 01:59:03 10° N
Tsikada Rocket 4.1 01:52:05 10° N 01:58:15 71° ENE 01:58:15 71° ENE
Cosmos 2098 Rocket 4.0 02:14:02 75° WNW 02:14:02 75° WNW 02:21:00 10° N
Milstar 3 Cent rocket 4.4 02:20:09 15° ESE 02:20:09 15° ESE 02:21:53 10° ESE
BREEZE-M DEB (TANK) 4.0 02:21:36 77° SE 02:21:36 77° SE 02:25:18 10° ENE
Cosmos 2369 Rocket 4.4 02:21:59 13° WNW 02:22:51 14° NW 02:25:40 10° NNW
Meteor 2-9 Rocket 4.3 02:24:38 81° ENE 02:24:38 81° ENE 02:30:20 10° N
Cosmos 44 Rocket 3.9 02:20:24 10° NNW 02:25:12 56° NE 02:25:12 56° NE
AQUA 4.4 02:21:20 10° NNE 02:25:12 53° NE 02:25:12 53° NE
Cosmos 2219 3.2 02:22:11 10° NNW 02:27:35 78° NNE 02:27:35 78° NNE
SeaSat 1 4.4 02:36:06 18° NW 02:36:06 18° NW 02:37:33 10° NW
Cosmos 2228 4.0 02:36:33 43° N 02:36:33 43° N 02:39:31 10° N
ATLAS CENTAUR R/B 4.1 02:35:02 14° ESE 02:35:31 14° ESE 02:38:03 10° ENE
Cosmos 2227 Rocket 4.2 02:32:55 10° N 02:37:35 25° ENE 02:42:12 10° ESE
Cosmos 2058 Rocket 4.4 02:42:56 32° NNW 02:42:56 32° NNW 02:45:41 10° N
CZ-2D R/B 3.6 02:39:48 10° NE 02:44:33 30° E 02:46:14 25° SE
SL-08 R/B 3.7 02:45:37 58° NNW 02:45:37 58° NNW 02:49:26 10° NNW
Geosat 4.3 02:41:15 10° NNE 02:45:55 54° NW 02:45:55 54° NW
Cosmos 2369 4.4 02:45:53 40° SE 02:46:41 43° ESE 02:52:00 10° NE
Cosmos 2278 4.1 02:46:21 48° SE 02:46:59 50° ESE 02:52:27 10° NNE
IRS-1C 4.0 02:42:47 10° NNE 02:48:09 88° ESE 02:48:16 86° S
Cosmos 1812 Rocket 4.1 02:49:33 57° ENE 02:49:33 57° ENE 02:53:38 10° NNE
ARIANE 5 R/B 3.3 02:45:08 10° NNE 02:50:01 44° E 02:50:51 40° SE
Cosmos 2208 Rocket 4.2 02:53:22 58° WNW 02:53:22 58° WNW 02:58:18 10° N
Cosmos 1464 Rocket 4.1 02:53:50 49° SSE 02:55:28 69° E 03:01:44 10° NNE
Spot 4 Rocket 4.0 02:51:13 10° NNE 02:56:24 75° ESE 02:56:49 70° SE
Cosmos 2297 Rocket 4.2 02:55:08 10° N 02:59:54 27° ENE 03:04:38 10° ESE
IRAS Rocket 4.3 02:56:29 10° N 03:02:00 60° WNW 03:02:31 57° W
ERS-1 4.4 02:57:32 10° NNE 03:02:38 79° ESE 03:03:07 71° SSE
NOSS 3-3 (A) 4.5 03:01:52 42° W 03:03:14 49° NW 03:09:40 10° NNE
NOSS 3-3 (C) 4.4 03:01:58 43° W 03:03:20 49° NW 03:09:46 10° NNE
Cosmos 2233 Rocket 4.4 03:04:09 42° W 03:04:32 43° W 03:10:20 10° N
Cosmos 2346 Rocket 4.5 03:01:43 10° NNW 03:07:53 62° W 03:08:50 55° SW
IRS-1D 3.7 03:03:11 10° NNE 03:08:05 60° E 03:09:03 50° SSE
BREEZE-M R/B 4.5 03:08:20 10° NW 03:14:39 67° NE 03:21:27 10° ESE
Cosmos 1943 Rocket 4.4 03:15:57 10° WNW 03:17:28 11° NW 03:19:18 10° NNW
OAO 3 Rocket 3.4 03:18:53 53° SE 03:18:53 53° SE 03:22:44 10° ESE
GEOS 3 Rocket 3.6 03:15:05 10° SE 03:20:18 84° NE 03:25:31 10° NNW
Cosmos 1814 Rocket 4.4 03:19:24 40° SSE 03:21:06 58° ESE 03:26:21 10° NNE
Cosmos 44 3.3 03:17:20 10° NNW 03:22:30 83° ENE 03:25:30 23° SSE
ATLAS 2AS CENTAUR R/B 3.4 03:20:24 10° NW 03:27:29 36° WSW 03:28:04 36° WSW
Cosmos 1707 2.9 03:24:39 10° N 03:28:35 71° E 03:29:14 57° SE
Cosmos 1513 Rocket 4.3 03:26:38 43° SSW 03:28:47 79° W 03:34:52 10° N
ERS-2 3.8 03:33:18 10° NNW 03:35:42 23° NW 03:35:42 23° NW
SL-16 R/B 2.4 03:34:48 21° S 03:39:06 81° WSW 03:45:19 10° NNW
USA 161 3.8 03:41:07 17° NW 03:41:07 17° NW 03:42:00 10° NNW
Cosmos 972 Rocket 4.1 03:35:53 10° NNW 03:40:39 51° W 03:41:40 44° SW
Resurs 1-4 Rocket 2.0 03:35:53 10° N 03:41:10 78° WNW 03:43:11 39° SSW
Cosmos 1891 Rocket 4.4 03:40:42 37° SW 03:42:59 62° W 03:49:00 10° N
UNK 3.6 03:42:23 35° S 03:44:18 75° WSW 03:49:00 10° NNW
Meteor 2-5 Rocket 3.8 03:38:56 10° NNW 03:44:44 64° W 03:47:48 29° SSW
Meteor 2-12 Rocket 4.4 03:42:24 26° S 03:45:59 85° E 03:52:03 10° N
Cosmos 2150 Rocket 3.9 03:41:46 10° NNW 03:47:02 87° ENE 03:52:11 10° SSE
Okean O Rocket 2.5 03:46:31 10° NNE 03:50:45 46° E 03:53:46 18° SSE
Cosmos 468 Rocket 4.1 03:50:04 37° SW 03:51:54 59° WNW 03:57:01 10° N
Cosmos 2034 Rocket 4.2 03:50:42 32° SW 03:53:25 53° W 03:59:30 10° N
CZ-2D R/B 3.6 03:50:58 10° NNE 03:55:17 79° ESE 03:57:32 28° S
PSLV R/B 4.4 03:53:07 10° NNE 03:56:55 51° E 03:59:10 22° SSE
GPS 2-04 Rocket1 2.9 03:57:08 44° SSW 03:57:44 48° SSE 04:01:21 10° E
ASTRO E2 3.1 03:58:05 40° SSW 03:58:33 42° S 04:02:24 10° ESE
BREEZE-M DEB (TANK) 2.4 03:58:53 10° WNW 04:03:33 41° WSW 04:03:33 41° WSW
MOS 1-B 4.4 03:59:20 10° N 04:05:05 62° WNW 04:08:34 24° SW
Cosmos 1656 3.7 04:03:24 27° SW 04:06:33 71° WNW 04:12:14 10° NNE
Cosmos 2082 3.7 04:02:00 10° NNW 04:07:32 58° WSW 04:13:01 10° S
CZ-2C R/B 4.2 04:03:18 10° SSE 04:07:59 64° ENE 04:12:37 10° N
Cosmos 1898 Rocket 3.6 04:04:10 10° NNW 04:09:23 56° WSW 04:14:35 10° S
EP 2 4.0 04:09:32 65° WSW 04:09:50 79° WNW 04:12:30 10° NNE
Cosmos 1697 Rocket 2.7 04:07:33 22° SSW 04:11:16 88° WNW 04:16:58 10° NNE
Cosmos 1758 3.7 04:10:32 15° S 04:13:49 65° E 04:17:50 10° NNE
ATLAS CENTAUR R/B 1.9 04:11:24 27° SW 04:14:05 65° WNW 04:19:06 10° NNE
Cosmos 1766 3.5 04:12:39 30° SW 04:14:15 50° W 04:18:07 10° N
Nadezhda 4 Rocket 4.0 04:11:12 10° NNW 04:17:15 59° W 04:23:20 10° S
Cosmos 1980 Rocket 2.6 04:12:33 13° S 04:17:26 62° ESE 04:23:01 10° NNE
MOZ.5/SAFIR/RUBIN 5/SL-8 4.1 04:13:36 10° SSE 04:18:18 71° ENE 04:23:01 10° N
In-Cosmos 22 4.4 04:15:48 10° N 04:21:03 66° E 04:26:18 10° SSE
SL-8 R/B 3.8 04:16:38 10° WNW 04:21:15 49° SW 04:25:51 10° SSE
Cosmos 1076 Rocket 3.4 04:17:01 10° NNW 04:21:19 67° W 04:25:34 10° S
Cosmos 2227 Rocket 2.6 04:16:27 10° NW 04:21:44 41° WSW 04:26:59 10° S
Cosmos 1953 2.3 04:18:51 16° S 04:22:03 87° E 04:26:07 10° N
EP 1 4.3 04:21:31 34° S 04:22:24 63° ESE 04:24:53 10° NE
CZ-2D R/B 3.1 04:19:46 10° N 04:24:32 31° WNW 04:27:34 19° WSW
Cosmos 405 Rocket 4.3 04:21:51 10° NW 04:24:46 19° W 04:25:08 19° W
UNKNOWN OBJECT B 3.9 04:22:41 10° NNW 04:26:06 28° WNW 04:27:41 21° WSW
Cosmos 2322 Rocket 4.1 04:21:37 10° SSE 04:26:11 26° ESE 04:30:45 10° NE
Okean-O 4.1 04:22:33 10° NNE 04:26:39 36° E 04:30:45 10° SSE
ISS -0.1 04:25:18 10° N 04:27:06 14° NNE 04:28:54 10° ENE
Cosmos 841 Rocket 3.5 04:23:17 18° SSW 04:27:12 69° WNW 04:32:28 10° NNE
SEDSat Delta rocket 4.5 04:26:17 20° SW 04:27:40 23° SSW 04:31:53 10° SSE
NOSS 7 (H) 4.2 04:26:43 24° SSW 04:28:33 87° ESE 04:31:49 10° NNE
Cosmos 1937 Rocket 3.6 04:23:35 10° NNW 04:28:36 52° WSW 04:33:38 10° S
ARIANE 5 R/B 4.1 04:25:11 10° NNW 04:28:48 20° WNW 04:31:12 15° W
Cosmos 1766 Rocket 3.6 04:25:35 10° NNW 04:29:55 62° W 04:34:17 10° S
Cosmos 1408 Rocket 3.7 04:26:50 10° NNW 04:31:07 54° W 04:35:23 10° S
Thor Agena Rocket 3.6 04:27:46 10° SSE 04:32:49 78° ENE 04:37:52 10° N
Cosmos 1544 3.5 04:33:34 10° S 04:37:13 65° E 04:40:51 10° NNE
Cosmos 1763 Rocket 3.9 04:33:50 17° SW 04:37:43 47° WNW 04:42:46 10° N
OAO 1 4.5 04:34:29 13° W 04:39:26 82° S 04:44:55 10° E
Cosmos-2242 3.2 04:35:57 13° SSW 04:39:40 54° W 04:43:55 10° N
Cosmos 2297 Rocket 2.7 04:38:49 10° NW 04:43:58 37° WSW 04:49:07 10° S
Cosmos 1634 Rocket 4.2 04:38:20 10° SSW 04:44:25 56° W 04:50:35 10° N
Cosmos 2360 4.4 04:38:53 10° SSW 04:44:32 73° ESE 04:50:14 10° NNE
Cosmos 1842 Rocket 3.7 04:43:19 10° S 04:47:47 85° E 04:52:18 10° N
Cosmos 2026 Rocket 4.0 04:42:37 10° N 04:49:00 85° W 04:55:17 10° S
ARGOS Delta rocket 4.0 04:44:01 10° N 04:49:13 70° WNW 04:54:06 10° SSW
Aurora 2 Rocket 4.0 04:47:52 10° SSW 04:49:29 14° S 04:51:23 10° SE
NOSS 3-4 (A) 3.8 04:43:15 10° NW 04:50:17 72° WSW 04:57:44 10° SSE
NOSS 3-4 (C) 3.8 04:43:21 10° NW 04:50:26 72° WSW 04:57:54 10° SSE
Cosmos 1805 3.8 04:49:04 11° SSW 04:52:39 40° W 04:56:22 10° N
PSLV R/B 3.8 04:48:35 10° NNE 04:52:49 72° ESE 04:57:02 10° S
BREEZE-M DEB (TANK) 2.8 04:54:25 14° SW 04:54:26 14° SW 04:55:43 10° S
Milstar 3 Cent rocket 3.5 04:49:00 12° WSW 04:54:29 50° S 05:05:34 10° ESE
SL-16 R/B 3.3 04:50:22 10° S 04:55:43 45° ESE 05:01:06 10° NE
Cosmos 371 Rocket 4.3 04:52:43 10° S 04:57:19 47° ESE 05:01:56 10° NNE
Cosmos 1437 2.7 04:54:52 10° NNW 04:58:11 68° W 05:01:30 10° S
ADEOS II 2.5 04:54:13 10° NNE 04:59:27 67° ESE 05:04:40 10° S
OAO 3 Rocket 4.2 04:57:21 10° W 05:01:12 25° SSW 05:05:01 10° SSE
CZ-4B R/B 3.5 04:57:42 10° N 05:01:25 36° WNW 05:04:57 10° SW
USA 81 4.3 04:58:31 10° SSW 05:03:38 51° W 05:08:48 10° N
Feng Yun 1-1 Rocket 4.3 05:02:48 10° NNE 05:08:30 89° W 05:14:00 10° SSW
CZ-4B R/B 4.1 05:10:15 10° N 05:15:10 33° WNW 05:20:00 10° SW
ADEOS Rocket 3.4 05:10:57 10° NNE 05:17:22 89° ESE 05:24:29 10° SSW
